Погода в Блантайре

Малави     15°48′09″S   35°00′55″E
темп.,
°C
ветер,
м/с
пор.,
м/с
влажн.,
%
обл.,
%
осадки,
мм/ч
давл.,
гПа
погр.,
м
10 августа, ср
ср1023:00+19вюв23420 0.0 101972
02:00+18в22490 0.0 101837
05:00+17вюв22510 0.0 101934
08:00+20всв13430 0.0 1020383
11:00+26в13290 0.0 10191881
14:00+27ююв12230 0.0 10162423
17:00+25юв34280 0.0 1016943
20:00+21юв38420 0.0 1018318
11 августа, чт
чт1123:00+19вюв48540 0.0 1019258
02:00+17вюв22660 0.0 101876
05:00+16всв23700 0.0 101990
08:00+19всв24610 0.0 1021438
11:00+25всв12360 0.0 10201895
14:00+27юз112958 0.0 10162476
17:00+25ю233487 0.0 10161267
20:00+21юв48410 0.0 1018379
12 августа, пт
пт1223:00+19вюв37490 0.0 1018220
02:00+17вюв22621 0.0 101870
05:00+16в35710 0.0 1019165
08:00+19св36630 0.0 1020579
11:00+25ссв334030 0.0 10181956
14:00+27св222919 0.0 10152542
17:00+25в443492 0.0 1014628
20:00+23в263314 0.0 1016164
13 августа, сб
сб1323:00+20вюв2339100 0.0 101687
02:00+19в234686 0.0 101583
05:00+17в36515 0.0 1016169
08:00+20всв37515 0.0 1018541
11:00+26ссв44335 0.0 10161754
14:00+28с442513 0.0 10112296
17:00+26ссв352882 0.0 10111143
20:00+22в353689 0.0 1013127
14 августа, вс
вс1423:00+21всв234182 0.0 101476
02:00+20всв234625 0.0 101358
05:00+19в344770 0.0 101376
08:00+21всв474341 0.0 1015386
11:00+28ссв442711 0.0 10131416
14:00+30с322014 0.0 10102269
17:00+28ссв23237 0.0 10101039
20:00+24в253366 0.0 1012132